GW5170 Weather Reports


time (UTC)temp
C
wind
direction
speed
KPH
gust
KPH
rain 1hr
cm
rain 24hr
cm
rain mn
cm
humidity
%
barometer
mb
20260905163337 30 63 3.2 4.8 0.00 0.00 0.00 71 1016.6
20260905162833 30 29 6.4 6.4 0.00 0.00 0.00 73 1016.7
20260905162332 29 345 6.4 9.7 0.00 0.00 0.00 72 1016.8
20260905161827 30 23 6.4 9.7 0.00 0.00 0.00 73 1016.7
20260905161327 30 44 4.8 9.7 0.00 0.00 0.00 71 1016.5
20260905160825 30 38 6.4 9.7 0.00 0.00 0.00 73 1016.7
20260905160319 30 8 9.7 14.5 0.00 0.00 0.00 72 1016.7
20260905155814 29 29 6.4 11.3 0.00 0.00 0.00 73 1016.6
20260905155312 30 40 11.3 12.9 0.00 0.00 0.00 74 1016.6
20260905154807 30 34 6.4 9.7 0.00 0.00 0.00 73 1016.6
20260905154303 29 22 4.8 4.8 0.00 0.00 0.00 76 1016.4
20260905153758 30 76 6.4 9.7 0.00 0.00 0.00 74 1016.4
20260905153255 29 357 4.8 6.4 0.00 0.00 0.00 75 1016.3
20260905152749 29 30 6.4 6.4 0.00 0.00 0.00 75 1016.5
20260905152248 30 37 4.8 4.8 0.00 0.00 0.00 74 1016.3
20260905151748 29 41 4.8 9.7 0.00 0.00 0.00 74 1016.2
20260905151244 29 72 6.4 9.7 0.00 0.00 0.00 74 1016.2
20260905150743 29 0 6.4 9.7 0.00 0.00 0.00 75 1016.3
20260905150238 28 38 4.8 4.8 0.00 0.00 0.00 75 1016.4
20260905145735 29 36 3.2 4.8 0.00 0.00 0.00 75 1016.3
20260905145230 28 324 4.8 4.8 0.00 0.00 0.00 74 1016.2
20260905144728 29 63 3.2 4.8 0.00 0.00 0.00 74 1016.1
20260905144224 28 60 6.4 11.3 0.00 0.00 0.00 75 1015.9
20260905143718 30 5 6.4 9.7 0.00 0.00 0.00 75 1016.0
20260905143217 28 53 6.4 11.3 0.00 0.00 0.00 76 1015.8
20260905142716 28 1 4.8 4.8 0.00 0.00 0.00 78 1015.7
20260905142211 28 23 6.4 9.7 0.00 0.00 0.00 79 1015.6
20260905141706 28 6 3.2 4.8 0.00 0.00 0.00 80 1016.0
20260905141203 27 67 4.8 4.8 0.00 0.00 0.00 81 1015.7
20260905140657 27 26 3.2 4.8 0.00 0.00 0.00 81 1015.8
20260905140151 28 25 3.2 4.8 0.00 0.00 0.00 81 1015.6
20260905135646 27 29 1.6 3.2 0.00 0.00 0.00 82 1015.6
20260905135142 27 3 1.6 3.2 0.00 0.00 0.00 83 1015.6
20260905134641 27 24 1.6 1.6 0.00 0.00 0.00 85 1015.6
20260905134140 27 37 1.6 1.6 0.00 0.00 0.00 84 1015.5
20260905133636 27 12 3.2 3.2 0.00 0.00 0.00 85 1015.4
20260905133135 26 357 1.6 3.2 0.00 0.00 0.00 87 1015.4
20260905132635 26 354 1.6 1.6 0.00 0.00 0.00 88 1015.3
20260905132130 26 339 3.2 4.8 0.00 0.00 0.00 88 1015.2
20260905131625 25 4 1.6 1.6 0.00 0.00 0.00 88 1015.3
20260905131121 26 343 1.6 3.2 0.00 0.00 0.00 87 1015.3
20260905130621 25 344 0.0 1.6 0.00 0.00 0.00 88 1015.3
20260905130115 25 336 0.0 1.6 0.00 0.00 0.00 89 1015.4
20260905125614 25 350 1.6 1.6 0.00 0.00 0.00 88 1015.4
20260905125110 25 5 3.2 3.2 0.00 0.00 0.00 87 1015.3
20260905124601 26 353 0.0 1.6 0.00 0.00 0.00 86 1015.2
20260905124057 25 349 0.0 1.6 0.00 0.00 0.00 88 1015.2
20260905123552 25 354 0.0 1.6 0.00 0.00 0.00 90 1015.3
20260905123049 24 351 0.0 0.0 0.00 0.00 0.00 91 1015.2
20260905122548 23 344 0.0 0.0 0.00 0.00 0.00 93 1015.2
20260905122043 23 346 1.6 1.6 0.00 0.00 0.00 94 1015.1
20260905121537 23 357 0.0 0.0 0.00 0.00 0.00 96 1015.2
20260905121033 23 347 1.6 1.6 0.00 0.00 0.00 96 1015.0
20260905120532 22 349 3.2 3.2 0.00 0.00 0.00 97 1015.0
20260905120027 22 357 3.2 3.2 0.00 0.00 0.00 97 1015.1
20260905115526 22 342 1.6 1.6 0.00 0.00 0.00 97 1014.8
20260905115021 22 349 6.4 6.4 0.00 0.00 0.00 97 1014.9
20260905114520 23 0 3.2 3.2 0.00 0.00 0.00 97 1014.6
20260905114020 23 340 1.6 1.6 0.00 0.00 0.00 97 1014.6
20260905113515 23 339 1.6 1.6 0.00 0.00 0.00 97 1014.4
20260905113011 23 0 1.6 1.6 0.00 0.00 0.00 97 1014.3
20260905112506 23 348 1.6 3.2 0.00 0.00 0.00 97 1014.3
20260905112001 23 351 3.2 3.2 0.00 0.00 0.00 97 1014.3
20260905111500 23 344 0.0 1.6 0.00 0.00 0.00 97 1014.2
20260905110955 23 349 1.6 1.6 0.00 0.00 0.00 97 1014.2
20260905110454 23 337 0.0 1.6 0.00 0.00 0.00 97 1013.9
20260905105948 23 337 0.0 0.0 0.00 0.00 0.00 97 1013.5
20260905105443 23 340 0.0 0.0 0.00 0.00 0.00 97 1013.7
20260905104942 23 334 0.0 1.6 0.00 0.00 0.00 97 1013.9
20260905104438 23 339 1.6 1.6 0.00 0.00 0.00 97 1013.6
20260905103933 23 342 1.6 1.6 0.00 0.00 0.00 97 1013.7
20260905103429 23 357 0.0 0.0 0.00 0.00 0.00 96 1013.6
20260905102925 23 7 1.6 1.6 0.00 0.00 0.00 96 1013.7
20260905102421 23 354 0.0 1.6 0.00 0.00 0.00 97 1013.9
20260905101916 23 344 0.0 0.0 0.00 0.00 0.00 97 1013.7
20260905101414 23 344 0.0 0.0 0.00 0.00 0.00 97 1013.9
20260905100909 23 347 0.0 0.0 0.00 0.00 0.00 97 1014.1
20260905100404 23 353 1.6 1.6 0.00 0.00 0.00 97 1014.0
20260905095903 23 338 1.6 3.2 0.00 0.00 0.00 96 1014.2
20260905095359 23 345 1.6 1.6 0.00 0.00 0.00 96 1014.2
20260905094858 23 345 1.6 3.2 0.00 0.00 0.00 96 1014.0
20260905094354 23 349 0.0 0.0 0.00 0.00 0.00 96 1013.7
20260905093853 23 345 1.6 1.6 0.00 0.00 0.00 95 1014.1
20260905093348 23 338 0.0 0.0 0.00 0.00 0.00 95 1014.1
20260905092844 24 357 1.6 1.6 0.00 0.00 0.00 95 1014.3
20260905092344 23 348 0.0 1.6 0.00 0.00 0.00 95 1014.2
20260905091839 23 337 1.6 1.6 0.00 0.00 0.00 96 1014.2
20260905091333 23 338 1.6 1.6 0.00 0.00 0.00 96 1014.3
20260905090832 23 332 1.6 1.6 0.00 0.00 0.00 96 1014.2
20260905090328 23 337 0.0 1.6 0.00 0.00 0.00 96 1014.2
20260905085827 24 1 4.8 4.8 0.00 0.00 0.00 95 1014.3
20260905085322 24 352 1.6 3.2 0.00 0.00 0.00 95 1014.2
20260905084817 25 347 0.0 0.0 0.00 0.00 0.00 94 1014.3
20260905084317 24 339 0.0 0.0 0.00 0.00 0.00 95 1014.4
20260905083812 24 332 0.0 1.6 0.00 0.00 0.00 95 1014.5
20260905083308 24 330 1.6 1.6 0.00 0.00 0.00 95 1014.6
20260905082803 24 334 1.6 3.2 0.00 0.00 0.00 95 1014.6
20260905082259 25 352 1.6 1.6 0.00 0.00 0.00 95 1014.7
20260905081754 24 331 1.6 1.6 0.00 0.00 0.00 95 1014.4
20260905081249 24 342 0.0 1.6 0.00 0.00 0.00 95 1014.5
20260905080748 24 346 0.0 1.6 0.00 0.00 0.00 95 1014.6
20260905080242 24 7 3.2 3.2 0.00 0.00 0.00 95 1014.5
20260905075741 25 346 1.6 1.6 0.00 0.00 0.00 95 1014.6
20260905075240 25 355 1.6 1.6 0.00 0.00 0.00 94 1014.3
20260905074739 25 346 0.0 0.0 0.00 0.00 0.00 94 1014.3
20260905074235 25 347 0.0 1.6 0.00 0.00 0.00 93 1014.3
20260905073731 25 339 0.0 0.0 0.00 0.00 0.00 93 1014.3
20260905073226 25 315 1.6 1.6 0.00 0.00 0.00 93 1014.2
20260905072725 25 317 1.6 3.2 0.00 0.00 0.00 93 1014.3
20260905072221 25 310 1.6 1.6 0.00 0.00 0.00 94 1014.4
20260905071718 25 324 1.6 1.6 0.00 0.00 0.00 94 1014.4
20260905071213 25 340 1.6 1.6 0.00 0.00 0.00 95 1014.5
20260905070708 25 336 1.6 1.6 0.00 0.00 0.00 95 1014.5
20260905070204 25 344 0.0 0.0 0.00 0.00 0.00 95 1014.5
20260905065702 25 345 3.2 3.2 0.00 0.00 0.00 95 1014.7
20260905065157 25 359 3.2 3.2 0.00 0.00 0.00 94 1014.7
20260905064652 25 9 1.6 3.2 0.00 0.00 0.00 94 1014.6
20260905064148 25 341 0.0 1.6 0.00 0.00 0.00 94 1014.6
20260905063646 25 346 0.0 0.0 0.00 0.00 0.00 94 1014.5
20260905063143 25 345 1.6 1.6 0.00 0.00 0.00 94 1014.5
20260905062638 25 344 1.6 1.6 0.00 0.00 0.00 94 1014.4
20260905062137 25 332 1.6 1.6 0.00 0.00 0.00 94 1014.7
20260905061632 25 346 0.0 0.0 0.00 0.00 0.00 95 1014.8
20260905061132 25 17 8.0 9.7 0.00 0.00 0.00 95 1015.0
20260905060627 25 14 6.4 9.7 0.00 0.00 0.00 94 1014.7
20260905060124 26 359 1.6 1.6 0.00 0.00 0.00 93 1014.6
20260905055622 26 348 1.6 3.2 0.00 0.00 0.00 93 1014.6
20260905055118 26 326 1.6 1.6 0.00 0.00 0.00 93 1014.4
20260905054614 25 337 1.6 1.6 0.00 0.00 0.00 94 1014.3
20260905054109 25 344 0.0 0.0 0.00 0.00 0.00 94 1014.4
20260905053608 25 340 0.0 0.0 0.00 0.00 0.00 94 1014.6
20260905053103 26 353 3.2 3.2 0.00 0.00 0.00 94 1014.4
20260905052603 26 343 1.6 1.6 0.00 0.00 0.00 93 1014.3
20260905052057 26 347 1.6 1.6 0.00 0.00 0.00 93 1014.3
20260905051553 26 331 1.6 1.6 0.00 0.00 0.00 93 1014.3
20260905051050 26 4 1.6 1.6 0.00 0.00 0.00 93 1014.4
20260905050546 26 331 1.6 3.2 0.00 0.00 0.00 92 1014.4
20260905050042 26 348 1.6 3.2 0.00 0.00 0.00 92 1014.5
20260905045537 26 348 0.0 0.0 0.00 0.00 0.00 91 1014.3
20260905045032 26 0 1.6 1.6 0.00 0.00 0.00 90 1014.7
20260905044532 27 12 3.2 4.8 0.00 0.00 0.00 88 1014.8
20260905044027 27 357 1.6 1.6 0.00 0.00 0.00 86 1014.5
20260905043526 27 19 3.2 3.2 0.00 0.00 0.00 86 1014.4
20260905043021 27 351 1.6 1.6 0.00 0.00 0.00 86 1014.3
20260905042514 27 338 0.0 0.0 0.00 0.00 0.00 86 1014.1
20260905042004 27 337 1.6 1.6 0.00 0.00 0.00 86 1014.4
20260905041500 27 339 1.6 1.6 0.00 0.00 0.00 86 1014.4
20260905040955 27 346 0.0 0.0 0.00 0.00 0.00 85 1014.4
20260905040454 27 9 1.6 3.2 0.00 0.00 0.00 85 1014.4
20260905035953 27 24 1.6 1.6 0.00 0.00 0.00 84 1014.5
20260905035448 27 19 1.6 1.6 0.00 0.00 0.00 84 1014.5
20260905034946 27 17 3.2 3.2 0.00 0.00 0.00 84 1014.4
20260905034441 27 52 3.2 4.8 0.00 0.00 0.00 83 1014.4
20260905033940 27 32 1.6 3.2 0.00 0.00 0.00 83 1014.4
20260905033439 27 13 1.6 3.2 0.00 0.00 0.00 83 1014.4
20260905032934 27 14 1.6 1.6 0.00 0.00 0.00 83 1014.4
20260905032430 28 349 3.2 3.2 0.00 0.00 0.00 82 1014.4
20260905031924 28 351 1.6 1.6 0.00 0.00 0.00 81 1014.4
20260905031421 27 46 3.2 4.8 0.00 0.00 0.00 82 1014.4
20260905030916 27 11 1.6 3.2 0.00 0.00 0.00 82 1014.4
20260905030411 28 13 1.6 1.6 0.00 0.00 0.00 81 1014.6
20260905025910 28 14 0.0 1.6 0.00 0.00 0.00 81 1014.4
20260905025405 28 52 3.2 3.2 0.00 0.00 0.00 81 1014.4
20260905024902 28 9 1.6 1.6 0.00 0.00 0.00 80 1014.5
20260905024356 28 10 1.6 1.6 0.00 0.00 0.00 80 1014.2
20260905023852 28 4 0.0 1.6 0.00 0.00 0.00 78 1014.1
20260905023347 28 352 0.0 0.0 0.00 0.00 0.00 78 1014.0
20260905022846 28 37 3.2 3.2 0.00 0.00 0.00 78 1014.1
20260905022341 28 38 3.2 3.2 0.00 0.00 0.00 78 1014.1
20260905021836 28 0 1.6 1.6 0.00 0.00 0.00 77 1014.1
20260905021331 28 13 0.0 1.6 0.00 0.00 0.00 76 1013.9
20260905020826 28 2 3.2 4.8 0.00 0.00 0.00 76 1013.6
20260905020321 29 346 3.2 3.2 0.00 0.00 0.00 75 1013.6
20260905015820 29 347 0.0 1.6 0.00 0.00 0.00 74 1013.5
20260905015314 29 18 3.2 3.2 0.00 0.00 0.00 74 1013.4
20260905014813 30 328 3.2 4.8 0.00 0.00 0.00 73 1013.2
20260905014309 29 347 0.0 0.0 0.00 0.00 0.00 73 1012.9
20260905013804 30 301 3.2 3.2 0.00 0.00 0.00 73 1012.6
20260905013300 30 325 1.6 1.6 0.00 0.00 0.00 72 1012.4
20260905012755 30 352 1.6 1.6 0.00 0.00 0.00 71 1012.4
20260905012251 30 319 3.2 3.2 0.00 0.00 0.00 71 1012.6
20260905011748 30 235 6.4 9.7 0.00 0.00 0.00 70 1012.3
20260905011243 30 70 11.3 12.9 0.00 0.00 0.00 70 1012.2
20260905010737 31 231 4.8 6.4 0.00 0.00 0.00 69 1012.3
20260905010232 31 252 12.9 14.5 0.00 0.00 0.00 68 1012.3
20260905005729 31 290 9.7 14.5 0.00 0.00 0.00 66 1012.4
20260905005225 31 251 8.0 11.3 0.00 0.00 0.00 66 1012.4
20260905004724 31 250 11.3 12.9 0.00 0.00 0.00 67 1012.6
20260905004220 31 253 11.3 14.5 0.00 0.00 0.00 67 1012.9
20260905003720 31 262 12.9 14.5 0.00 0.00 0.00 68 1013.0
20260905003216 31 267 8.0 9.7 0.00 0.00 0.00 69 1013.0
20260905002711 31 251 6.4 9.7 0.00 0.00 0.00 68 1013.3
20260905002211 31 271 4.8 6.4 0.00 0.00 0.00 68 1013.4
20260905001706 32 248 4.8 6.4 0.00 0.00 0.00 67 1013.4
20260905001205 32 328 4.8 6.4 0.00 0.00 0.00 66 1013.5
20260905000700 32 290 4.8 4.8 0.00 0.00 0.00 65 1013.7
20260905000156 32 291 3.2 3.2 0.00 0.00 0.00 64 1013.6
20260904235657 32 304 3.2 3.2 0.00 0.00 0.00 64 1013.7
20260904235156 32 322 4.8 4.8 0.00 0.00 0.00 63 1013.6
20260904234651 33 327 1.6 1.6 0.00 0.00 0.00 63 1013.9
20260904234147 33 326 4.8 6.4 0.00 0.00 0.00 62 1013.7
20260904233642 33 291 3.2 4.8 0.00 0.00 0.00 62 1013.7
20260904233138 33 337 3.2 3.2 0.00 0.00 0.00 60 1013.9
20260904232635 33 255 6.4 6.4 0.00 0.00 0.00 60 1013.7
20260904232131 34 327 3.2 3.2 0.00 0.00 0.00 59 1013.7
20260904231626 34 307 6.4 6.4 0.00 0.00 0.00 59 1013.9
20260904231126 34 305 3.2 3.2 0.00 0.00 0.00 58 1013.6
20260904230621 34 271 6.4 9.7 0.00 0.00 0.00 58 1014.0
20260904230116 34 274 8.0 9.7 0.00 0.00 0.00 58 1013.9
20260904225614 34 297 9.7 12.9 0.00 0.00 0.00 58 1013.7
20260904225108 34 273 6.4 11.3 0.00 0.00 0.00 58 1014.0
20260904224603 34 333 3.2 3.2 0.00 0.00 0.00 56 1013.6
20260904224058 35 257 9.7 12.9 0.00 0.00 0.00 56 1013.3
20260904223557 35 289 6.4 9.7 0.00 0.00 0.00 55 1013.2
20260904223053 35 249 14.5 17.7 0.00 0.00 0.00 55 1012.9
20260904222548 35 279 9.7 12.9 0.00 0.00 0.00 55 1012.8
20260904222043 35 251 14.5 17.7 0.00 0.00 0.00 55 1012.8
20260904221538 35 252 14.5 17.7 0.00 0.00 0.00 55 1012.7
20260904221033 35 14 17.7 20.9 0.00 0.00 0.00 55 1012.7
20260904220533 35 250 9.7 12.9 0.00 0.00 0.00 56 1012.6
20260904220029 34 271 11.3 14.5 0.00 0.00 0.00 56 1012.6
20260904215528 35 267 9.7 14.5 0.00 0.00 0.00 55 1012.6
20260904215024 35 215 11.3 12.9 0.00 0.00 0.00 55 1012.6
20260904214520 34 327 11.3 14.5 0.00 0.00 0.00 55 1012.6
20260904214015 35 223 8.0 11.3 0.00 0.00 0.00 54 1012.7
20260904213512 35 237 14.5 20.9 0.00 0.00 0.00 56 1012.9
20260904213010 35 270 16.1 17.7 0.00 0.00 0.00 57 1013.0
20260904212508 35 215 9.7 11.3 0.00 0.00 0.00 56 1012.9
20260904212003 35 288 12.9 16.1 0.00 0.00 0.00 54 1013.1
20260904211458 35 339 4.8 6.4 0.00 0.00 0.00 54 1013.0
20260904210954 35 283 6.4 9.7 0.00 0.00 0.00 55 1013.0
20260904210453 35 236 6.4 6.4 0.00 0.00 0.00 55 1013.0
20260904205949 35 262 12.9 14.5 0.00 0.00 0.00 55 1012.9
20260904205444 35 261 16.1 22.5 0.00 0.00 0.00 54 1013.0
20260904204942 35 265 9.7 12.9 0.00 0.00 0.00 55 1013.0
20260904204442 35 267 8.0 9.7 0.00 0.00 0.00 55 1012.9
20260904203938 35 266 14.5 16.1 0.00 0.00 0.00 55 1012.9
20260904203434 33 274 11.3 14.5 0.00 0.00 0.00 57 1012.9
20260904202930 33 260 6.4 9.7 0.00 0.00 0.00 59 1012.9
20260904202426 33 275 6.4 6.4 0.00 0.00 0.00 59 1012.9
20260904201921 33 259 14.5 14.5 0.00 0.00 0.00 58 1013.0
20260904201416 33 242 9.7 14.5 0.00 0.00 0.00 58 1013.1
20260904200913 33 262 8.0 9.7 0.00 0.00 0.00 58 1013.2
20260904200410 33 243 9.7 12.9 0.00 0.00 0.00 58 1013.2
20260904195907 33 227 8.0 11.3 0.00 0.00 0.00 58 1013.3
20260904195404 33 279 1.6 3.2 0.00 0.00 0.00 58 1013.4
20260904194858 33 274 4.8 6.4 0.00 0.00 0.00 58 1013.6
20260904194358 33 260 8.0 11.3 0.00 0.00 0.00 58 1013.6
20260904193854 33 235 14.5 17.7 0.00 0.00 0.00 58 1014.0
20260904193349 33 281 9.7 11.3 0.00 0.00 0.00 58 1013.4
20260904192844 34 281 9.7 12.9 0.00 0.00 0.00 57 1014.0
20260904192339 33 300 11.3 12.9 0.00 0.00 0.00 56 1013.9
20260904191836 34 289 9.7 11.3 0.00 0.00 0.00 56 1013.9
20260904191332 35 269 17.7 20.9 0.00 0.00 0.00 54 1014.3
20260904190828 34 283 6.4 9.7 0.00 0.00 0.00 56 1014.0
20260904190324 34 214 6.4 9.7 0.00 0.00 0.00 56 1014.1
20260904185820 34 243 14.5 20.9 0.00 0.00 0.00 54 1014.2
20260904185316 34 278 12.9 17.7 0.00 0.00 0.00 55 1014.3
20260904184815 34 247 8.0 9.7 0.00 0.00 0.00 54 1014.3
20260904184310 35 272 8.0 11.3 0.00 0.00 0.00 54 1014.2
20260904183806 35 254 17.7 17.7 0.00 0.00 0.00 54 1014.4
20260904183305 35 266 11.3 14.5 0.00 0.00 0.00 53 1014.3
20260904182800 34 245 12.9 16.1 0.00 0.00 0.00 53 1014.7
20260904182255 34 5 8.0 11.3 0.00 0.00 0.00 54 1014.4
20260904181751 34 8 8.0 12.9 0.00 0.00 0.00 55 1014.7
20260904181251 34 274 8.0 9.7 0.00 0.00 0.00 57 1014.5
20260904180746 34 308 6.4 6.4 0.00 0.00 0.00 55 1014.5
20260904180242 34 242 3.2 6.4 0.00 0.00 0.00 55 1014.5
20260904175741 33 321 4.8 4.8 0.00 0.00 0.00 55 1014.6
20260904175239 34 270 9.7 11.3 0.00 0.00 0.00 55 1014.7
20260904174734 33 322 4.8 4.8 0.00 0.00 0.00 58 1014.6
20260904174230 33 268 9.7 12.9 0.00 0.00 0.00 56 1014.6
20260904173726 35 260 11.3 12.9 0.00 0.00 0.00 55 1014.6
20260904173226 35 246 6.4 9.7 0.00 0.00 0.00 54 1014.4
20260904172723 34 253 6.4 9.7 0.00 0.00 0.00 54 1014.6
20260904172221 33 346 6.4 9.7 0.00 0.00 0.00 54 1014.6
20260904171717 33 291 4.8 9.7 0.00 0.00 0.00 55 1014.8
20260904171212 34 279 12.9 14.5 0.00 0.00 0.00 55 1014.7
20260904170708 34 290 4.8 4.8 0.00 0.00 0.00 55 1014.9
20260904170204 33 257 9.7 11.3 0.00 0.00 0.00 56 1014.8
20260904165703 33 267 8.0 11.3 0.00 0.00 0.00 57 1014.7
20260904165202 33 306 6.4 9.7 0.00 0.00 0.00 57 1014.7
20260904164658 34 273 4.8 6.4 0.00 0.00 0.00 59 1014.9
20260904164157 34 350 1.6 3.2 0.00 0.00 0.00 57 1014.9
20260904163654 33 342 3.2 6.4 0.00 0.00 0.00 58 1014.8